Total_Precipitation_Accumulation
0.45 0.42 0.50 0.57 0.49 0.52 0.68 0.70 0.62 0.39 0.35 0.39 0.31 0.25 0.23 0.20 0.18 0.19 0.23 0.21 0.20 0.21 0.25 0.29 0.33 0.36 0.36 0.38 0.45 0.55 0.69 0.79 0.87 0.92 1.03 1.10 1.12 1.14 1.18 1.31 1.40 1.41 1.46 1.48
0.41 0.29 0.35 0.41 0.33 0.34 0.38 0.36 0.39 0.33 0.38 0.39 0.31 0.24 0.22 0.21 0.21 0.21 0.25 0.23 0.22 0.23 0.27 0.30 0.32 0.34 0.32 0.34 0.41 0.50 0.65 0.72 0.80 0.95 1.06 1.20 1.22 1.26 1.27 1.32 1.41 1.43 1.42 1.45
0.69 0.34 0.51 0.63 0.41 0.34 0.35 0.34 0.34 0.40 0.43 0.36 0.32 0.29 0.26 0.24 0.24 0.24 0.23 0.24 0.23 0.25 0.29 0.33 0.32 0.32 0.32 0.34 0.38 0.44 0.56 0.67 0.74 0.88 1.00 1.10 1.14 1.17 1.20 1.14 1.13 1.23 1.31 1.28
0.99 0.74 1.05 0.59 0.31 0.28 0.30 0.35 0.34 0.36 0.37 0.34 0.35 0.34 0.30 0.26 0.25 0.24 0.23 0.24 0.24 0.25 0.27 0.30 0.32 0.32 0.32 0.32 0.36 0.43 0.51 0.63 0.67 0.77 0.91 0.96 1.03 1.07 1.08 1.01 0.99 1.10 1.14 1.07
1.31 1.01 0.63 0.31 0.24 0.32 0.38 0.46 0.37 0.32 0.31 0.30 0.30 0.32 0.36 0.31 0.26 0.26 0.24 0.23 0.24 0.24 0.25 0.25 0.29 0.31 0.32 0.32 0.34 0.39 0.46 0.56 0.60 0.68 0.84 0.85 0.92 1.01 1.00 1.00 0.98 0.96 0.96 0.92
1.42 1.09 0.60 0.32 0.18 0.22 0.35 0.56 0.35 0.28 0.31 0.33 0.32 0.48 0.47 0.38 0.32 0.29 0.24 0.22 0.24 0.25 0.22 0.23 0.26 0.26 0.26 0.27 0.30 0.37 0.44 0.51 0.55 0.60 0.73 0.74 0.75 0.81 0.86 0.87 0.90 0.91 0.89 0.84
1.17 0.91 0.45 0.27 0.20 0.23 0.60 0.71 0.34 0.29 0.31 0.32 0.38 0.49 0.44 0.38 0.34 0.29 0.28 0.26 0.25 0.25 0.25 0.25 0.26 0.26 0.26 0.25 0.27 0.32 0.38 0.44 0.50 0.55 0.62 0.63 0.66 0.68 0.73 0.78 0.82 0.86 0.87 0.81
0.87 0.95 0.55 0.27 0.28 0.50 0.62 0.36 0.28 0.28 0.28 0.29 0.29 0.28 0.30 0.32 0.32 0.29 0.30 0.30 0.28 0.28 0.27 0.27 0.27 0.26 0.24 0.25 0.27 0.29 0.35 0.41 0.46 0.52 0.55 0.57 0.61 0.66 0.68 0.76 0.87 0.89 0.86 0.84
0.65 0.61 0.45 0.34 0.39 0.41 0.32 0.27 0.24 0.26 0.27 0.28 0.28 0.27 0.29 0.29 0.29 0.28 0.29 0.30 0.28 0.29 0.31 0.31 0.30 0.29 0.25 0.24 0.27 0.31 0.37 0.41 0.47 0.51 0.50 0.57 0.63 0.69 0.73 0.79 0.89 0.91 0.87 0.84
0.40 0.33 0.28 0.29 0.28 0.27 0.24 0.22 0.21 0.22 0.27 0.26 0.27 0.26 0.27 0.26 0.27 0.29 0.28 0.27 0.25 0.28 0.31 0.33 0.32 0.30 0.27 0.25 0.29 0.33 0.38 0.40 0.46 0.54 0.55 0.55 0.61 0.69 0.73 0.77 0.91 0.96 0.93 0.90
0.34 0.26 0.22 0.21 0.21 0.23 0.23 0.19 0.17 0.19 0.22 0.22 0.23 0.24 0.25 0.27 0.27 0.28 0.29 0.27 0.25 0.27 0.28 0.31 0.30 0.28 0.27 0.28 0.32 0.37 0.39 0.41 0.47 0.56 0.59 0.56 0.58 0.64 0.71 0.73 0.94 1.11 1.03 1.03
0.31 0.22 0.23 0.20 0.17 0.16 0.18 0.18 0.17 0.20 0.22 0.21 0.21 0.24 0.24 0.25 0.26 0.26 0.27 0.27 0.26 0.24 0.26 0.27 0.26 0.26 0.28 0.30 0.35 0.42 0.44 0.46 0.50 0.57 0.59 0.58 0.58 0.63 0.71 0.74 0.81 0.85 0.93 1.02
0.23 0.17 0.17 0.15 0.12 0.12 0.16 0.18 0.16 0.18 0.22 0.24 0.21 0.22 0.25 0.27 0.27 0.27 0.26 0.26 0.27 0.26 0.24 0.23 0.23 0.25 0.29 0.32 0.36 0.43 0.49 0.52 0.54 0.58 0.59 0.60 0.58 0.61 0.68 0.67 0.69 0.73 0.79 0.88
0.17 0.16 0.17 0.12 0.12 0.11 0.13 0.15 0.14 0.14 0.16 0.20 0.22 0.22 0.26 0.28 0.27 0.26 0.26 0.26 0.25 0.25 0.24 0.22 0.22 0.24 0.29 0.35 0.39 0.44 0.50 0.56 0.59 0.60 0.60 0.60 0.57 0.59 0.65 0.71 0.76 0.79 0.84 0.90
0.15 0.15 0.16 0.13 0.10 0.09 0.11 0.12 0.14 0.16 0.17 0.18 0.21 0.25 0.27 0.30 0.29 0.27 0.26 0.25 0.23 0.23 0.24 0.24 0.24 0.26 0.29 0.35 0.41 0.46 0.53 0.57 0.60 0.61 0.60 0.57 0.56 0.59 0.62 0.67 0.75 0.84 0.89 0.95
0.17 0.14 0.12 0.11 0.11 0.11 0.12 0.14 0.17 0.19 0.20 0.20 0.21 0.23 0.27 0.31 0.31 0.29 0.28 0.27 0.26 0.25 0.26 0.27 0.27 0.28 0.30 0.36 0.42 0.49 0.57 0.67 0.69 0.65 0.63 0.60 0.59 0.62 0.64 0.69 0.75 0.81 0.89 0.95
0.23 0.19 0.15 0.14 0.13 0.13 0.14 0.17 0.20 0.20 0.20 0.21 0.23 0.24 0.26 0.29 0.31 0.30 0.29 0.29 0.29 0.29 0.28 0.29 0.31 0.32 0.33 0.38 0.46 0.56 0.62 0.65 0.70 0.68 0.66 0.66 0.68 0.68 0.69 0.74 0.79 0.80 0.84 0.94
0.22 0.21 0.19 0.18 0.18 0.17 0.16 0.16 0.17 0.19 0.20 0.23 0.23 0.24 0.26 0.30 0.34 0.35 0.33 0.32 0.30 0.28 0.28 0.30 0.36 0.36 0.36 0.42 0.51 0.58 0.64 0.65 0.62 0.64 0.69 0.73 0.77 0.75 0.77 0.79 0.80 0.83 0.85 0.90
0.16 0.17 0.16 0.15 0.16 0.17 0.17 0.17 0.17 0.18 0.19 0.21 0.23 0.24 0.27 0.32 0.37 0.39 0.36 0.35 0.33 0.33 0.34 0.37 0.44 0.41 0.42 0.50 0.59 0.62 0.67 0.69 0.66 0.66 0.70 0.78 0.77 0.72 0.75 0.78 0.83 0.86 0.86 0.88
0.14 0.15 0.16 0.15 0.15 0.17 0.18 0.17 0.17 0.17 0.19 0.21 0.23 0.24 0.26 0.30 0.35 0.39 0.38 0.37 0.38 0.41 0.41 0.45 0.45 0.44 0.48 0.57 0.68 0.68 0.68 0.68 0.69 0.72 0.74 0.76 0.75 0.75 0.77 0.79 0.86 0.93 0.92 0.91
0.17 0.18 0.18 0.18 0.17 0.16 0.17 0.18 0.19 0.20 0.22 0.24 0.28 0.31 0.32 0.34 0.37 0.40 0.42 0.41 0.41 0.44 0.45 0.48 0.48 0.54 0.61 0.70 0.72 0.67 0.66 0.68 0.71 0.77 0.81 0.81 0.82 0.81 0.81 0.83 0.88 0.93 0.94 0.93
0.20 0.22 0.22 0.22 0.21 0.20 0.19 0.21 0.23 0.24 0.24 0.26 0.30 0.34 0.37 0.39 0.41 0.42 0.43 0.46 0.49 0.53 0.49 0.45 0.49 0.62 0.74 0.75 0.66 0.64 0.64 0.67 0.72 0.80 0.86 0.86 0.87 0.88 0.85 0.86 0.92 0.93 0.92 0.91
0.25 0.26 0.27 0.28 0.29 0.29 0.26 0.28 0.29 0.30 0.33 0.34 0.37 0.40 0.42 0.45 0.47 0.49 0.48 0.48 0.50 0.52 0.50 0.48 0.53 0.65 0.72 0.66 0.61 0.61 0.62 0.66 0.73 0.82 0.87 0.90 0.92 0.93 0.93 0.93 0.96 0.98 0.97 0.93
0.28 0.29 0.32 0.33 0.33 0.32 0.32 0.32 0.33 0.36 0.39 0.41 0.43 0.46 0.47 0.47 0.46 0.48 0.51 0.51 0.52 0.53 0.51 0.54 0.57 0.64 0.68 0.62 0.59 0.61 0.65 0.70 0.79 0.88 0.92 0.94 0.95 0.95 0.96 1.01 1.05 1.01 0.95 0.90
0.33 0.34 0.34 0.34 0.36 0.37 0.36 0.34 0.32 0.34 0.36 0.39 0.40 0.42 0.44 0.49 0.56 0.56 0.52 0.51 0.52 0.53 0.51 0.54 0.58 0.63 0.62 0.60 0.60 0.65 0.70 0.79 0.93 1.06 1.07 1.03 0.99 0.98 0.98 1.02 1.07 1.03 0.97 0.92
0.40 0.41 0.41 0.43 0.44 0.44 0.43 0.41 0.40 0.40 0.41 0.41 0.39 0.40 0.43 0.49 0.55 0.58 0.56 0.53 0.53 0.55 0.56 0.58 0.60 0.62 0.61 0.62 0.64 0.69 0.75 0.83 0.96 1.04 1.01 0.98 0.97 0.99 1.00 1.02 1.02 1.01 0.98 0.95
0.45 0.43 0.43 0.44 0.45 0.46 0.49 0.51 0.51 0.52 0.53 0.53 0.50 0.46 0.48 0.52 0.56 0.56 0.54 0.53 0.53 0.55 0.57 0.61 0.63 0.63 0.63 0.66 0.71 0.76 0.79 0.83 0.96 1.06 1.05 1.01 1.00 1.00 0.99 1.00 1.01 1.02 1.02 0.99